[[{"header":{"parameterUnit":"m.s-1","parameterCategory":1,"la1":30.2991,"la2":30.254,"lo1":-89.0895,"lo2":-89.0444,"dy":0.0017,"dx":0.0017,"nx":28,"ny":28,"refTime":"2024-05-06T09:00:00:Z","depth":0,"parameterNumber":2,"parameterNumberName":"U-component_of_WINDS"},"data":[0,0,0,0,0,0,0,0,0,0,0,0,0,0,0,0,0,0,0,0,0,0,0,0,0,0,0,0,0,0,0,0,0,0,0,0,0,0,0,0,0,0,0,0,0,0,0,0,0,0,0,0,0,0,0,0,0,0,-1.0995,-1.0994,0,-1.0939,-1.0938,-1.0938,-1.0914,-1.0915,-1.0915,-1.0915,-1.0856,-1.0854,-1.0852,0,0,0,0,0,0,0,0,0,0,0,0,0,-1.1081,-1.108,-1.0995,-1.0994,-1.0994,-1.0939,-1.0938,-1.0937,-1.0914,-1.0915,-1.0915,-1.0915,-1.0856,-1.0854,-1.0852,0,0,0,0,0,0,0,0,0,0,0,0,0,-1.1036,-1.1079,-1.0995,-1.0976,-1.0973,-1.0939,-1.0938,-1.0937,-1.0914,-1.0915,-1.0915,-1.0915,-1.0857,-1.0854,-1.0852,-1.0833,0,0,-1.0844,-1.0843,0,0,0,0,0,0,0,0,-1.1039,-1.1033,-1.0979,-1.0977,-1.0974,-1.0934,-1.0947,-1.0902,-1.0914,-1.0937,-1.0915,-1.0915,-1.0881,-1.0877,-1.0866,-1.083,-1.0827,-1.0844,-1.0842,-1.0841,-1.0841,0,0,0,0,0,0,0,-1.1042,-1.1035,-1.0973,-1.0978,-1.0975,-1.0969,-1.0963,-1.0938,-1.0909,-1.0935,-1.0933,-1.0927,-1.088,-1.0868,-1.0864,-1.0826,-1.0844,-1.0842,-1.084,-1.0839,-1.0772,-1.0771,0,0,0,0,0,0,-1.1048,-1.1038,-1.0974,-1.0971,-1.1008,-1.0968,-1.0961,-1.0947,-1.0909,-1.0903,-1.0927,-1.0926,-1.0873,-1.0867,-1.0862,-1.0837,-1.0841,-1.0839,-1.0837,-1.0772,-1.0772,-1.0771,0,0,0,0,0,0,-1.105,-1.1043,-1.0977,-1.1004,-1.0995,-1.0966,-1.095,-1.0945,-1.0934,-1.0903,-1.0897,-1.092,-1.0873,-1.0866,-1.084,-1.0835,-1.0838,-1.0836,-1.0772,-1.0772,-1.0771,-1.0787,0,0,0,0,0,0,-1.1053,-1.1044,-1.1036,-1.1004,-1.0994,-1.0956,-1.095,-1.0944,-1.093,-1.0928,-1.0895,-1.089,-1.0872,-1.0844,-1.0838,-1.0831,-1.0834,-1.0773,-1.0772,-1.0772,-1.0786,-1.0787,-1.0787,0,0,0,0,0,-1.1056,-1.1042,-1.1036,-1.1028,-1.0984,-1.0956,-1.095,-1.093,-1.0929,-1.0921,-1.0902,-1.0891,-1.0837,-1.0842,-1.0834,-1.0827,-1.0773,-1.0772,-1.0772,-1.0786,-1.0787,-1.0787,0,0,0,0,0,0,-1.1074,-1.1038,-1.103,-1.1006,-1.0984,-1.0952,-1.0941,-1.0931,-1.0909,-1.0908,-1.0885,-1.0877,-1.0854,-1.0838,-1.0844,-1.0806,-1.0804,-1.0802,-1.0818,-1.0818,-1.0818,-1.0822,-1.0831,0,0,0,0,0,-1.1075,-1.1056,-1.1025,-1.1006,-1.0996,-1.0971,-1.0958,-1.0945,-1.0921,-1.0911,-1.089,-1.0867,-1.0845,-1.083,-1.0808,-1.0784,-1.0777,-1.0776,-1.0776,-1.0776,-1.0774,-1.0761,-1.076,-1.0769,-1.0769,-1.0769,0,0,-1.1077,-1.1055,-1.1044,-1.101,-1.0991,-1.0971,-1.0963,-1.0942,-1.0927,-1.0908,-1.0883,-1.0866,-1.0839,-1.0815,-1.0803,-1.08,-1.077,-1.0775,-1.0776,-1.0774,-1.076,-1.0759,-1.0758,-1.0769,-1.0769,-1.0769,0,0,-1.1071,-1.1052,-1.1035,-1.1017,-1.099,-1.0973,-1.0969,-1.0938,-1.0927,-1.0901,-1.0887,-1.0868,-1.083,-1.0811,-1.0797,-1.0785,-1.0774,-1.0778,-1.0779,-1.0766,-1.0765,-1.0765,-1.076,-1.0759,-1.0776,-1.0777,-1.0777,0,-1.1077,-1.1047,-1.1027,-1.1007,-1.0992,-1.0975,-1.0957,-1.094,-1.0907,-1.0897,-1.0895,-1.0848,-1.0828,-1.0799,-1.0796,-1.0785,-1.0779,-1.0781,-1.0767,-1.0766,-1.0765,-1.076,-1.0759,-1.0777,-1.0777,-1.0777,-1.0777,0,-1.1055,-1.1035,-1.1024,-1.0993,-1.0977,-1.0958,-1.0935,-1.0921,-1.091,-1.0893,-1.0868,-1.0844,-1.0817,-1.0809,-1.0797,-1.0778,-1.0778,-1.0772,-1.0769,-1.0765,-1.076,-1.0758,-1.0778,-1.0778,-1.0778,-1.0777,0,0,-1.1058,-1.1017,-1.1013,-1.0999,-1.0968,-1.0951,-1.0932,-1.0906,-1.0894,-1.0872,-1.0855,-1.0824,-1.0818,-1.0802,-1.0788,-1.0777,-1.0769,-1.0773,-1.0772,-1.0772,-1.0746,-1.075,-1.0748,-1.0762,-1.0761,-1.0761,-1.0748,0,-1.1047,-1.1012,-1.0994,-1.0966,-1.0947,-1.093,-1.0913,-1.0892,-1.0877,-1.0858,-1.084,-1.0818,-1.0813,-1.0803,-1.0791,-1.0772,-1.0763,-1.0773,-1.0745,-1.0744,-1.0752,-1.0746,-1.075,-1.0739,-1.0746,-1.0746,-1.0746,0,-1.1029,-1.1008,-1.0979,-1.095,-1.0941,-1.0926,-1.0901,-1.0884,-1.0859,-1.0849,-1.0831,-1.0818,-1.0796,-1.0796,-1.0766,-1.0773,-1.0761,-1.075,-1.0749,-1.0745,-1.0744,-1.0741,-1.0735,-1.0733,-1.0742,-1.0743,-1.0743,0,-1.1034,-1.0998,-1.0975,-1.0964,-1.093,-1.092,-1.0905,-1.0882,-1.0867,-1.0845,-1.0836,-1.0812,-1.0798,-1.078,-1.076,-1.0761,-1.0732,-1.0729,-1.0722,-1.0723,-1.0716,-1.0717,-1.0707,-1.0709,-1.0709,-1.0709,-1.0709,0,-1.1023,-1.1006,-1.0977,-1.0963,-1.0943,-1.0923,-1.0904,-1.0888,-1.0867,-1.0849,-1.0834,-1.0818,-1.0793,-1.0774,-1.0759,-1.0736,-1.073,-1.0721,-1.0717,-1.0722,-1.0723,-1.0713,-1.0713,-1.0709,-1.0709,-1.0709,-1.0709,0,-1.1025,-1.1005,-1.0979,-1.095,-1.0942,-1.0929,-1.0903,-1.0889,-1.0873,-1.0851,-1.0845,-1.082,-1.0796,-1.0775,-1.0744,-1.0734,-1.0711,-1.0706,-1.0719,-1.0717,-1.0711,-1.0712,-1.0694,-1.0691,-1.0696,-1.0696,-1.0696,0,-1.1019,-1.1005,-1.0975,-1.0962,-1.0948,-1.0928,-1.0914,-1.0893,-1.0879,-1.0851,-1.084,-1.0816,-1.0795,-1.0759,-1.0738,-1.0714,-1.0708,-1.0704,-1.0704,-1.071,-1.0707,-1.0708,-1.0707,-1.0704,-1.0704,-1.0704,-1.0704,0,-1.1011,-1.1002,-1.0982,-1.0958,-1.0942,-1.0922,-1.0902,-1.0893,-1.0869,-1.0853,-1.083,-1.0814,-1.0783,-1.0759,-1.0733,-1.0717,-1.0706,-1.0704,-1.0701,-1.0706,-1.0714,-1.0709,-1.072,-1.0704,-1.0704,-1.0704,-1.0704,-1.0704,-1.1008,-1.0995,-1.0972,-1.095,-1.0933,-1.0915,-1.09,-1.0883,-1.0863,-1.0836,-1.0826,-1.0802,-1.0778,-1.0742,-1.0727,-1.0708,-1.0706,-1.0701,-1.07,-1.0699,-1.07,-1.0717,-1.0703,-1.0703,-1.0703,-1.0703,-1.0703,0,-1.0999,-1.0984,-1.0964,-1.0936,-1.0919,-1.0911,-1.0889,-1.0875,-1.0854,-1.0834,-1.0814,-1.0787,-1.0764,-1.0741,-1.0717,-1.0706,-1.0701,-1.07,-1.0701,-1.0697,-1.0704,-1.0708,-1.0705,-1.0705,-1.0705,-1.0705,-1.0705,-1.0705,-1.0992,-1.097,-1.0959,-1.0928,-1.0912,-1.0889,-1.0877,-1.086,-1.0843,-1.0814,-1.0795,-1.0781,-1.0759,-1.0733,-1.0712,-1.0706,-1.0697,-1.0698,-1.0691,-1.0697,-1.0697,-1.0697,-1.0701,-1.0697,-1.0697,-1.0686,-1.0686,-1.0686]},{"header":{"parameterUnit":"m.s-1","parameterCategory":1,"la1":30.2991,"la2":30.254,"lo1":-89.0895,"lo2":-89.0444,"dy":0.0017,"dx":0.0017,"nx":28,"ny":28,"refTime":"2024-05-06T09:00:00:Z","depth":0,"parameterNumber":3,"parameterNumberName":"V-component_of_WINDS"},"data":[0,0,0,0,0,0,0,0,0,0,0,0,0,0,0,0,0,0,0,0,0,0,0,0,0,0,0,0,0,0,0,0,0,0,0,0,0,0,0,0,0,0,0,0,0,0,0,0,0,0,0,0,0,0,0,0,0,0,6.6938,6.6939,0,6.6987,6.6987,6.6988,6.6958,6.6957,6.6956,6.6954,6.6998,6.7001,6.7003,0,0,0,0,0,0,0,0,0,0,0,0,0,6.6816,6.6818,6.6938,6.6939,6.694,6.6987,6.6987,6.6988,6.6959,6.6957,6.6955,6.6954,6.6998,6.7,6.7003,0,0,0,0,0,0,0,0,0,0,0,0,0,6.6867,6.6819,6.6938,6.6931,6.6931,6.6987,6.6987,6.6988,6.6959,6.6957,6.6955,6.6953,6.6997,6.7,6.7004,6.7068,0,0,6.7015,6.7017,0,0,0,0,0,0,0,0,6.6864,6.6871,6.6931,6.6931,6.6931,6.6965,6.696,6.7015,6.696,6.6948,6.6954,6.6952,6.6988,6.6993,6.7006,6.707,6.7072,6.7015,6.7018,6.7019,6.702,0,0,0,0,0,0,0,6.6861,6.6869,6.6957,6.6932,6.6932,6.6923,6.6928,6.697,6.6979,6.6949,6.6947,6.6953,6.6988,6.7003,6.7007,6.7073,6.7015,6.7019,6.7021,6.7022,6.7194,6.7196,0,0,0,0,0,0,6.6858,6.6866,6.6956,6.6959,6.6892,6.6927,6.6933,6.6956,6.6979,6.698,6.6955,6.6952,6.6997,6.7003,6.7008,6.7086,6.7019,6.7023,6.7025,6.7191,6.7194,6.7197,0,0,0,0,0,0,6.6856,6.6867,6.6954,6.6912,6.6923,6.6932,6.6958,6.6958,6.6973,6.6983,6.6984,6.6969,6.6996,6.7003,6.7054,6.7087,6.7024,6.7028,6.7189,6.7192,6.7195,6.7242,0,0,0,0,0,0,6.6852,6.6866,6.6891,6.6913,6.6925,6.7,6.696,6.696,6.698,6.6976,6.6996,6.6998,6.6995,6.7049,6.7058,6.7091,6.7031,6.7186,6.719,6.7194,6.7238,6.7247,6.7255,0,0,0,0,0,6.6848,6.6901,6.6893,6.6904,6.6957,6.7002,6.7009,6.7006,6.6983,6.7008,6.7015,6.6997,6.7082,6.7054,6.7064,6.7099,6.7184,6.7189,6.7194,6.7234,6.7245,6.7254,0,0,0,0,0,0,6.688,6.6904,6.6895,6.6957,6.6978,6.6997,6.7029,6.7018,6.7045,6.704,6.7033,6.7038,6.7092,6.71,6.7069,6.7164,6.7129,6.7137,6.7156,6.7167,6.7175,6.7172,6.7034,0,0,0,0,0,6.6895,6.6931,6.6949,6.7002,6.7013,6.702,6.7039,6.7035,6.7056,6.7064,6.7075,6.7095,6.7126,6.7147,6.7176,6.7239,6.7243,6.7268,6.7276,6.7283,6.729,6.7324,6.7336,6.7214,6.7214,6.7214,0,0,6.6925,6.6942,6.6965,6.7009,6.7025,6.7062,6.7027,6.7067,6.7093,6.707,6.712,6.7128,6.715,6.7208,6.7233,6.7216,6.7325,6.729,6.7295,6.7298,6.7331,6.7343,6.7353,6.7217,6.7217,6.7216,0,0,6.6998,6.7015,6.7062,6.7079,6.7105,6.711,6.7121,6.7143,6.7148,6.7199,6.7182,6.7213,6.7267,6.7283,6.7299,6.7381,6.7366,6.739,6.7435,6.7468,6.7478,6.7487,6.7516,6.7527,6.7397,6.7397,6.7397,0,6.7031,6.7088,6.7086,6.7129,6.7148,6.7131,6.7178,6.7194,6.7228,6.7241,6.7222,6.7291,6.7304,6.7366,6.7386,6.7399,6.7411,6.7388,6.7477,6.7486,6.7494,6.7522,6.7533,6.74,6.74,6.7399,6.7399,0,6.7128,6.7167,6.7201,6.7237,6.7261,6.7305,6.7309,6.7333,6.7327,6.7333,6.7385,6.74,6.7433,6.7448,6.7441,6.7509,6.7498,6.7478,6.7443,6.7508,6.7535,6.7545,6.7404,6.7403,6.7402,6.7401,0,0,6.7221,6.7258,6.7271,6.7287,6.7316,6.7345,6.7388,6.7423,6.7444,6.7467,6.7503,6.755,6.7533,6.7551,6.7546,6.7576,6.7641,6.7553,6.7553,6.7569,6.7717,6.7732,6.7745,6.7632,6.7634,6.7635,6.7715,0,6.7297,6.7375,6.7376,6.7447,6.7484,6.7469,6.7506,6.7527,6.7534,6.7565,6.7571,6.7606,6.758,6.7591,6.762,6.7627,6.7671,6.7621,6.7664,6.7665,6.7659,6.7758,6.7774,6.7849,6.7726,6.7727,6.7729,0,6.7396,6.7426,6.7502,6.7527,6.7542,6.7576,6.7608,6.7638,6.7662,6.7664,6.7686,6.7677,6.772,6.7685,6.7744,6.771,6.7728,6.7734,6.7737,6.7741,6.7701,6.7765,6.7872,6.7884,6.7745,6.7744,6.7742,0,6.7458,6.7517,6.757,6.7585,6.7615,6.7639,6.7653,6.7674,6.7695,6.7723,6.7737,6.7768,6.7785,6.7809,6.781,6.7784,6.7869,6.7834,6.7872,6.7873,6.7891,6.789,6.8003,6.7902,6.7902,6.7902,6.7901,0,6.7542,6.7589,6.7599,6.7632,6.7684,6.7684,6.7735,6.7746,6.7765,6.7799,6.7787,6.7819,6.7817,6.7849,6.7849,6.7898,6.7905,6.7908,6.7908,6.791,6.791,6.7921,6.7916,6.7905,6.7904,6.7903,6.7903,0,6.762,6.7628,6.7686,6.7711,6.7718,6.7755,6.7776,6.7806,6.7813,6.7856,6.7866,6.7876,6.7913,6.7916,6.7957,6.7957,6.8017,6.8011,6.801,6.8009,6.8048,6.8045,6.8173,6.819,6.8077,6.8078,6.8079,0,6.7673,6.771,6.774,6.7763,6.7778,6.7815,6.7838,6.7839,6.7862,6.7893,6.792,6.7956,6.7985,6.8045,6.8054,6.8087,6.8081,6.8124,6.8085,6.8087,6.8082,6.808,6.8084,6.8131,6.8132,6.8133,6.8134,0,6.7768,6.7771,6.7805,6.7841,6.7869,6.7897,6.7923,6.7942,6.7946,6.7973,6.8012,6.8035,6.808,6.8116,6.8148,6.8159,6.8148,6.8146,6.8157,6.8159,6.8158,6.816,6.8031,6.8143,6.8142,6.8142,6.8141,6.8141,6.7835,6.7868,6.7895,6.7933,6.7954,6.7979,6.8009,6.8021,6.8054,6.8092,6.8091,6.8134,6.8156,6.8199,6.8213,6.8246,6.8231,6.8247,6.8251,6.8254,6.8259,6.8153,6.8252,6.8251,6.8251,6.8251,6.8251,0,6.793,6.7947,6.7983,6.8021,6.8052,6.804,6.8069,6.8095,6.8134,6.8157,6.8187,6.8232,6.8267,6.8281,6.8315,6.8339,6.8334,6.8348,6.8346,6.8349,6.827,6.8257,6.8351,6.8351,6.8351,6.8351,6.8351,6.8351,6.7983,6.8037,6.8044,6.8108,6.8124,6.8168,6.8186,6.8208,6.8227,6.8279,6.831,6.8319,6.8338,6.8374,6.8406,6.8409,6.8422,6.8438,6.8439,6.8364,6.8354,6.8345,6.8333,6.8441,6.8441,6.8515,6.8516,6.8516]}]]